ARABSAT-6A

Last updated on Jan. 20, 2021, 6:22 a.m. UTC

1 44186U 19021A   21019.84017111  .00000159  00000-0  00000-0 0  9997
2 44186   0.0293  13.5926 0005570 283.5798 155.1985  1.00271283  6378
UTC
Height (km)
Latitude
Longitude
Inclination
Orbital Period
UTC large
Height (km)
Speed (km/s)
/
Latitude / Longitude
Inclination (degrees)
Orbital Period (minutes)
Azimuth
Elevation
Range (km)
Doppler Factor
iOS Compass Heading
iOS Angle

Next 30 passes for location: Hong Kong

Rise time Rise Azimuth (degrees) Set time Set Azimuth (degrees) Duration Max altitude (degrees)

No matching passes for this satellites